Find Starlink 30797

NORAD ID: 58154 Int'l Des: 2023-166 Owner: SPXS Country: US Constellation: starlink operational
LEOCIRCULAR

实时位置

正在加载3D地球...

关于 Starlink 30797

正在加载描述...

即将过境

Passes for default location (London). Set your location on the main map for personalized predictions.

高度历史

Loading altitude history...

两行轨道根数

1 58154U 23166E 26124.79450507 .00000754 00000-0 37596-4 0 9993
2 58154 53.1596 319.1763 0001024 115.7937 244.3169 15.30194807141614
Epoch: May 4, 2026 • Age: 13 hours

当前状态

高度 479.9 km
速度 7.63 km/s
星下点 47.96°N, 96.27°E
发射日期 Oct 29, 2023
运行时间 2.5 years
类型 internet

技术详情

分类 Payload
质量 730.00 kg
干质量 700.00 kg
总质量 730.00 kg
长度 0.30 m
直径 4.10 m
跨度 29.00 m
形状 Box + pan
制造商 SPXS
平台类型 Starlink V2M
阶段状态 In Orbit
所有者/国家 SPXS/US

Most Searched